Location: 22
(39.7117°N, 89.5929°W)
Time: 06:32:26
(UTC-05:00)

ISS - Visible Passes

Search period start: 24 September 2023 00:00
Search period end: 04 October 2023 00:00
Orbit: 414 x 422 km, 51.6° (Epoch: 24 September)

Date Brightness Start Highest point End Pass type
(mag) Time Alt. Az. Time Alt. Az. Time Alt. Az.
24 Sep -1.0 19:15:49 10° NNW 19:16:52 11° N 19:17:55 10° NNE visible
24 Sep -1.1 20:52:47 10° NNW 20:54:03 14° N 20:54:03 14° N visible
25 Sep -1.2 20:04:58 10° NNW 20:06:28 12° N 20:07:47 11° NE visible
26 Sep -1.2 19:17:01 10° NNW 19:18:06 11° N 19:19:10 10° NNE visible
26 Sep -1.4 20:53:00 10° NNW 20:54:26 19° N 20:54:26 19° N visible
27 Sep -1.8 20:05:06 10° NNW 20:07:30 18° NNE 20:08:11 17° NE visible
28 Sep -1.5 19:17:12 10° NNW 19:19:08 14° NNE 19:21:05 10° NE visible
28 Sep -1.7 20:53:12 10° NW 20:54:51 26° NNW 20:54:51 26° NNW visible
29 Sep -2.8 20:05:10 10° NW 20:08:14 33° NNE 20:08:38 32° NE visible
30 Sep -2.2 19:17:08 10° NNW 19:19:54 23° NNE 19:22:28 11° ENE visible
30 Sep -1.7 20:53:34 10° WNW 20:55:23 28° WNW 20:55:23 28° WNW visible
01 Oct -3.9 20:05:16 10° NW 20:08:37 88° NE 20:09:17 55° SE visible
02 Oct -3.4 19:17:03 10° NW 19:20:20 50° NNE 19:23:15 12° ESE visible
02 Oct -1.1 20:54:33 10° W 20:56:11 16° WSW 20:56:11 16° WSW visible
03 Oct -2.1 20:05:41 10° WNW 20:08:39 29° SW 20:10:17 19° S visible
